Location: Chinna Viriv?da
(16.5281°N, 81.0493°E)
Time: 14:09:56
(UTC+00:00)

Cosmos 2227 Rocket - Pass Details

Date: 14 April 2026
Orbit: 836 x 845 km, 71.0° (Epoch: 10 May)

Event Time Altitude Azimuth Distance (km) Brightness Sun altitude
Rises 23:47:00 0° 173° (S) 3,379 5.3 -8.8°
Reaches altitude 10° 23:49:42 10° 163° (SSE) 2,447 4.7 -8.1°
Maximum altitude 23:54:33 30° 103° (ESE) 1,456 4.3 -7.0°
Drops below altitude 10° 23:59:23 10° 43° (NE) 2,455 5.6 -5.9°
Sets 00:02:06 0° 33° (NNE) 3,392 6.1 -5.2°
